Date String (YYYY-MM-DD hh:mm:ss) UTC,Instrument flags,absolute air pressure of the measurement (hPa),sample flow rate (lpm),inlet stack bypass flow (lpm),air temperature of the measurement (°C),ambient temperature measured by the external sensor (°C),aerosol sample conditioner tube jacket temperature (°C),OPC LED temperature (°C),internal box temperature (°C),relative humidity of the measurement (%),span deviation,mass concentration of particles derived from Lorenz-Mie calculation of OPC scattering (μg/m³),mass concentration of particles derived from Lorenz-Mie calculation of OPC scattering (μg/m³),mass concentration of particles derived from Lorenz-Mie calculation of OPC scattering (μg/m³)
DateTimeUTC,F1_M11,P_M11,Q1_M11,Q2_M11,T1_M11,T2_M11,T3_M11,T4_M11,T5_M11,U1_M11,ZSPAN_M11,X2_M11,X0_M11,X1_M11
2024-02-08 17:00:00,SystemResetWarning,0816.9,5.00,000.00,018.4,017.5,000.0,026.9,020.0,13.7,0000.0,0000.51,0002.97,0000.18
2024-02-08 17:01:00,SystemResetWarning,0816.9,4.99,000.00,018.4,017.5,000.0,026.9,020.0,13.9,0000.0,0000.49,0002.93,0000.18
2024-02-08 17:02:00,SystemResetWarning,0816.9,5.00,000.00,018.4,017.6,000.0,026.9,020.0,13.7,0000.0,0000.52,0003.00,0000.20
2024-02-08 17:03:00,SystemResetWarning,0816.9,4.99,000.00,018.4,017.6,000.0,026.9,020.0,13.4,0000.0,0000.54,0003.02,0000.22
2024-02-08 17:04:00,SystemResetWarning,0816.9,5.00,000.00,018.4,017.6,000.0,026.8,020.0,13.4,0000.0,0000.58,0003.07,0000.24
2024-02-08 17:05:00,SystemResetWarning,0816.9,5.00,000.00,018.4,017.6,000.0,026.9,020.0,13.8,0000.0,0000.64,0001.73,0000.27
2024-02-08 17:06:00,SystemResetWarning,0816.9,5.00,000.00,018.4,017.6,000.0,026.9,020.0,13.6,0000.0,0000.66,0001.41,0000.29
2024-02-08 17:07:00,SystemResetWarning,0817.0,5.01,000.00,018.4,017.6,000.0,026.9,020.0,13.7,0000.0,0000.66,0001.46,0000.30
2024-02-08 17:08:00,SystemResetWarning,0816.9,5.00,000.00,018.4,017.6,000.0,026.9,020.0,13.6,0000.0,0000.66,0001.56,0000.31
2024-02-08 17:09:00,SystemResetWarning,0816.9,5.00,000.00,018.4,017.6,000.0,026.9,020.0,13.7,0000.0,0000.67,0001.49,0000.31
2024-02-08 17:10:00,SystemResetWarning,0816.9,4.99,000.00,018.4,017.6,000.0,026.9,020.0,13.2,0000.0,0000.69,0001.51,0000.32
2024-02-08 17:11:00,SystemResetWarning,0816.9,5.01,000.00,018.4,017.6,000.0,026.9,020.0,13.5,0000.0,0000.68,0001.63,0000.32
2024-02-08 17:12:00,SystemResetWarning,0816.9,5.01,000.00,018.4,017.6,000.0,026.9,020.0,13.3,0000.0,0000.67,0002.83,0000.32
2024-02-08 17:13:00,SystemResetWarning,0816.9,5.00,000.00,018.4,017.7,000.0,026.8,020.0,13.3,0000.0,0000.67,0003.98,0000.29
2024-02-08 17:14:00,SystemResetWarning,0816.9,4.99,000.00,018.4,017.7,000.0,026.9,020.0,13.3,0000.0,0000.68,0004.03,0000.28
2024-02-08 17:15:00,SystemResetWarning,0816.9,5.00,000.00,018.4,017.7,000.0,026.8,020.0,13.1,0000.0,0000.65,0003.98,0000.25
2024-02-08 17:16:00,SystemResetWarning,0817.0,5.01,000.00,018.4,017.7,000.0,026.8,020.0,13.1,0000.0,0000.59,0003.90,0000.23
2024-02-08 17:17:00,SystemResetWarning,0817.0,5.01,000.00,018.4,017.7,000.0,026.9,020.0,13.4,0000.0,0000.54,0003.82,0000.20
2024-02-08 17:18:00,SystemResetWarning,0817.1,5.00,000.00,018.4,017.7,000.0,026.8,020.0,13.5,0000.0,0000.54,0003.75,0000.19
2024-02-08 17:19:00,SystemResetWarning,0817.1,4.99,000.00,018.4,017.7,000.0,026.8,020.0,13.1,0000.0,0000.52,0004.14,0000.18
2024-02-08 17:20:00,SystemResetWarning,0817.1,5.00,000.00,018.4,017.7,000.0,026.8,020.0,13.2,0000.0,0000.52,0004.55,0000.17
2024-02-08 17:21:00,SystemResetWarning,0817.1,5.00,000.00,018.4,017.6,000.0,026.8,020.0,13.1,0000.0,0000.49,0004.79,0000.16
2024-02-08 17:22:00,SystemResetWarning,0817.1,5.00,000.00,018.4,017.6,000.0,026.8,020.0,13.2,0000.0,0000.46,0004.74,0000.16
2024-02-08 17:23:00,SystemResetWarning,0817.1,5.00,000.00,018.4,017.6,000.0,026.8,020.0,13.8,0000.0,0000.48,0004.00,0000.16
2024-02-08 17:24:00,SystemResetWarning,0817.1,5.00,000.00,018.4,017.6,000.0,026.8,020.0,14.1,0000.0,0000.46,0002.25,0000.17
2024-02-08 17:25:00,SystemResetWarning,0817.1,5.00,000.00,018.4,017.6,000.0,026.8,020.0,13.8,0000.0,0000.43,0002.15,0000.17
2024-02-08 17:26:00,SystemResetWarning,0817.2,5.00,000.00,018.4,017.6,000.0,026.8,020.0,13.9,0000.0,0000.42,0002.11,0000.18
2024-02-08 17:27:00,SystemResetWarning,0817.2,5.00,000.00,018.4,017.6,000.0,026.9,020.0,14.8,0000.0,0000.42,0002.08,0000.18
2024-02-08 17:28:00,SystemResetWarning,0817.3,5.00,000.00,018.4,017.6,000.0,026.8,020.0,14.9,0000.0,0000.43,0002.38,0000.19
2024-02-08 17:29:00,SystemResetWarning,0817.4,5.00,000.00,018.4,017.6,000.0,026.8,020.0,14.2,0000.0,0000.46,0003.36,0000.21
2024-02-08 17:30:00,SystemResetWarning,0817.4,5.00,000.00,018.4,017.6,000.0,026.8,020.0,14.3,0000.0,0000.51,0003.10,0000.24
2024-02-08 17:31:00,SystemResetWarning,0817.4,5.00,000.00,018.4,017.6,000.0,026.8,020.0,14.4,0000.0,0000.56,0002.73,0000.27
2024-02-08 17:32:00,SystemResetWarning,0817.4,4.99,000.00,018.4,017.6,000.0,026.9,020.0,14.6,0000.0,0000.57,0002.38,0000.27
2024-02-08 17:33:00,SystemResetWarning,0817.4,5.00,000.00,018.4,017.6,000.0,026.9,020.0,13.1,0000.0,0000.59,0002.43,0000.27
2024-02-08 17:34:00,SystemResetWarning,0817.3,5.00,000.00,018.4,017.6,000.0,026.8,020.0,11.6,0000.0,0000.57,0002.35,0000.27
2024-02-08 17:35:00,SystemResetWarning,0817.2,5.00,000.00,018.4,017.6,000.0,026.8,020.0,11.3,0000.0,0000.55,0002.82,0000.27
2024-02-08 17:36:00,SystemResetWarning,0817.2,5.00,000.00,018.4,017.6,000.0,026.8,020.0,11.9,0000.0,0000.58,0003.24,0000.28
2024-02-08 17:37:00,SystemResetWarning,0817.2,4.99,000.00,018.4,017.7,000.0,026.8,020.0,12.3,0000.0,0000.60,0003.30,0000.28
2024-02-08 17:38:00,SystemResetWarning,0817.4,5.01,000.00,018.4,017.7,000.0,026.8,020.0,11.4,0000.0,0000.62,0003.37,0000.27
2024-02-08 17:39:00,SystemResetWarning,0817.4,5.01,000.00,018.4,017.7,000.0,026.8,020.0,12.0,0000.0,0000.60,0003.34,0000.26
2024-02-08 17:40:00,SystemResetWarning,0817.3,5.00,000.00,018.4,017.7,000.0,026.8,020.0,12.9,0000.0,0000.58,0002.48,0000.25
2024-02-08 17:41:00,SystemResetWarning,0817.3,4.99,000.00,018.4,017.7,000.0,026.8,020.0,12.8,0000.0,0000.53,0001.95,0000.22
2024-02-08 17:42:00,SystemResetWarning,0817.3,4.99,000.00,018.4,017.7,000.0,026.8,020.0,13.0,0000.0,0000.44,0001.80,0000.19
2024-02-08 17:43:00,SystemResetWarning,0817.4,5.00,000.00,018.4,017.7,000.0,026.8,020.0,12.6,0000.0,0000.41,0001.81,0000.18
2024-02-08 17:44:00,SystemResetWarning,0817.4,5.00,000.00,018.4,017.7,000.0,026.8,020.0,12.0,0000.0,0000.41,0002.20,0000.19
2024-02-08 17:45:00,SystemResetWarning,0817.4,5.01,000.00,018.4,017.7,000.0,026.8,020.0,11.7,0000.0,0000.40,0002.38,0000.18
2024-02-08 17:46:00,SystemResetWarning,0817.3,5.00,000.00,018.4,017.7,000.0,026.8,020.0,12.5,0000.0,0000.41,0002.44,0000.19
2024-02-08 17:47:00,SystemResetWarning,0817.3,5.00,000.00,018.4,017.7,000.0,026.8,020.0,11.9,0000.0,0000.39,0001.53,0000.18
2024-02-08 17:48:00,SystemResetWarning,0817.2,5.00,000.00,018.4,017.7,000.0,026.8,020.0,12.3,0000.0,0000.34,0001.41,0000.16
2024-02-08 17:49:00,SystemResetWarning,0817.1,5.00,000.00,018.4,017.7,000.0,026.8,020.0,12.8,0000.0,0000.30,0001.28,0000.16
2024-02-08 17:50:00,SystemResetWarning,0816.9,4.99,000.00,018.4,017.7,000.0,026.8,020.0,13.2,0000.0,0000.31,0001.60,0000.16
2024-02-08 17:51:00,SystemResetWarning,0816.9,4.99,000.00,018.4,017.7,000.0,026.8,020.0,13.8,0000.0,0000.29,0002.41,0000.16
2024-02-08 17:52:00,SystemResetWarning,0817.0,5.00,000.00,018.4,017.6,000.0,026.8,020.0,13.3,0000.0,0000.28,0002.39,0000.17
2024-02-08 17:53:00,SystemResetWarning,0817.0,5.00,000.00,018.4,017.6,000.0,026.8,020.0,12.4,0000.0,0000.30,0002.47,0000.17
2024-02-08 17:54:00,SystemResetWarning,0816.8,5.00,000.00,018.4,017.6,000.0,026.8,020.0,13.1,0000.0,0000.31,0002.45,0000.17
2024-02-08 17:55:00,SystemResetWarning,0816.9,5.00,000.00,018.4,017.5,000.0,026.8,020.0,12.9,0000.0,0000.29,0002.11,0000.16
2024-02-08 17:56:00,SystemResetWarning,0816.9,5.00,000.00,018.4,017.5,000.0,026.8,020.0,13.4,0000.0,0000.27,0001.70,0000.16
2024-02-08 17:57:00,SystemResetWarning,0816.9,5.00,000.00,018.4,017.5,000.0,026.8,020.0,13.6,0000.0,0000.25,0001.64,0000.15
2024-02-08 17:58:00,SystemResetWarning,0816.9,5.00,000.00,018.4,017.5,000.0,026.8,020.0,12.8,0000.0,0000.26,0001.67,0000.16
2024-02-08 17:59:00,SystemResetWarning,0816.9,5.00,000.00,018.4,017.5,000.0,026.8,020.0,13.5,0000.0,0000.27,0001.69,0000.16
